When you browse on this site, cookies collect data to enhance your experience and personalize the content and advertising you see.
Visit our Privacy Policy to learn more. By continuing to use the site, you agree to this use of cookies and data.
  • In Hungary
  • List of Countries
  • For 7 days
  • Water Temperature
  • Satellite Maps
  • Weather Map
  • News
  • Weather Widgets
  • user-avatar
    Login

    Hourly Weather Kalpi

    Today, 19 July, Friday

    Time Temperature Precipitation Wind Pressure Humidity
    00:00 +36°C° 0 mm 1 mps 739 mmHg 46%
    01:00 +35°C° 0 mm 1 mps 738 mmHg 47%
    02:00 +35°C° 0 mm 1 mps 738 mmHg 48%
    03:00 +35°C° 0 mm 1 mps 738 mmHg 49%
    04:00 +35°C° 0 mm 1 mps 739 mmHg 50%
    05:00 +34°C° 0 mm 1 mps 739 mmHg 53%
    06:00 +36°C° 0 mm 2 mps 739 mmHg 48%
    07:00 +37°C° 0 mm 2 mps 739 mmHg 44%
    08:00 +38°C° 0 mm 3 mps 740 mmHg 39%
    09:00 +39°C° 0 mm 2 mps 740 mmHg 36%
    10:00 +41°C° 0 mm 2 mps 740 mmHg 33%
    11:00 +42°C° 0 mm 1 mps 740 mmHg 31%
    12:00 +42°C° 0 mm 1 mps 739 mmHg 30%
    13:00 +42°C° 0 mm 1 mps 739 mmHg 30%
    14:00 +42°C° 0 mm 1 mps 738 mmHg 30%
    15:00 +42°C° 0 mm 1 mps 738 mmHg 30%
    16:00 +42°C° 0 mm 1 mps 737 mmHg 30%
    17:00 +42°C° 0 mm 1 mps 737 mmHg 30%
    18:00 +38°C° 0 mm 0 mps 737 mmHg 31%
    19:00 +38°C° 0 mm 0 mps 738 mmHg 33%
    20:00 +37°C° 0 mm 0 mps 738 mmHg 34%
    21:00 +40°C° 0 mm 1 mps 738 mmHg 36%
    22:00 +39°C° 0 mm 1 mps 738 mmHg 38%
    23:00 +37°C° 0 mm 1 mps 738 mmHg 40%

    Tomorrow, 20 July, Saturday

    Time Temperature Precipitation Wind Pressure Humidity
    00:00 +37°C° 0 mm 1 mps 738 mmHg 41%
    01:00 +37°C° 0 mm 1 mps 738 mmHg 43%
    02:00 +36°C° 0 mm 1 mps 738 mmHg 44%
    03:00 +36°C° 0 mm 1 mps 738 mmHg 46%
    04:00 +35°C° 0 mm 1 mps 738 mmHg 48%
    05:00 +35°C° 0 mm 1 mps 738 mmHg 50%
    06:00 +36°C° 0 mm 1 mps 739 mmHg 46%
    07:00 +38°C° 0 mm 2 mps 739 mmHg 42%
    08:00 +39°C° 0 mm 2 mps 740 mmHg 38%
    09:00 +40°C° 0 mm 2 mps 740 mmHg 35%
    10:00 +42°C° 0 mm 1 mps 740 mmHg 32%
    11:00 +43°C° 0 mm 1 mps 740 mmHg 28%
    12:00 +43°C° 0 mm 1 mps 739 mmHg 28%
    13:00 +45°C° 0 mm 2 mps 739 mmHg 27%
    14:00 +45°C° 0 mm 2 mps 738 mmHg 26%
    15:00 +45°C° 0 mm 2 mps 738 mmHg 26%
    16:00 +45°C° 0 mm 2 mps 737 mmHg 26%
    17:00 +43°C° 0 mm 2 mps 737 mmHg 27%
    18:00 +43°C° 0 mm 2 mps 737 mmHg 28%
    19:00 +42°C° 0 mm 2 mps 737 mmHg 30%
    20:00 +42°C° 0 mm 2 mps 738 mmHg 32%
    21:00 +41°C° 0 mm 2 mps 738 mmHg 33%
    22:00 +40°C° 0 mm 2 mps 738 mmHg 34%
    23:00 +40°C° 0 mm 2 mps 738 mmHg 35%

    Day after tomorrow, 21 July, Sunday

    Time Temperature Precipitation Wind Pressure Humidity
    00:00 +39°C° 0 mm 2 mps 738 mmHg 37%
    01:00 +39°C° 0 mm 2 mps 737 mmHg 39%
    02:00 +38°C° 0 mm 2 mps 737 mmHg 41%
    03:00 +38°C° 0 mm 2 mps 737 mmHg 43%
    04:00 +38°C° 0 mm 2 mps 737 mmHg 44%
    05:00 +38°C° 0 mm 2 mps 738 mmHg 46%
    06:00 +38°C° 0 mm 3 mps 738 mmHg 44%
    07:00 +39°C° 0 mm 3 mps 739 mmHg 42%
    08:00 +41°C° 0 mm 4 mps 739 mmHg 41%
    09:00 +42°C° 0 mm 3 mps 739 mmHg 37%
    10:00 +43°C° 0 mm 3 mps 739 mmHg 33%
    11:00 +44°C° 0 mm 3 mps 739 mmHg 30%
    12:00 +43°C° 0 mm 2 mps 738 mmHg 29%
    13:00 +44°C° 0 mm 1 mps 737 mmHg 28%
    14:00 +44°C° 0 mm 1 mps 737 mmHg 28%
    15:00 +44°C° 0 mm 1 mps 736 mmHg 28%
    16:00 +44°C° 0 mm 1 mps 736 mmHg 28%
    17:00 +44°C° 0 mm 1 mps 736 mmHg 28%
    18:00 +43°C° 0 mm 1 mps 736 mmHg 29%
    19:00 +42°C° 0 mm 1 mps 737 mmHg 31%
    20:00 +42°C° 0 mm 1 mps 737 mmHg 32%
    21:00 +41°C° 0 mm 1 mps 737 mmHg 33%
    22:00 +41°C° 0 mm 1 mps 737 mmHg 34%
    23:00 +41°C° 0 mm 2 mps 737 mmHg 35%

    22 July, Monday

    Time Temperature Precipitation Wind Pressure Humidity
    00:00 +40°C° 0 mm 2 mps 737 mmHg 36%
    01:00 +40°C° 0 mm 1 mps 736 mmHg 38%
    02:00 +40°C° 0 mm 1 mps 736 mmHg 39%
    03:00 +39°C° 0 mm 1 mps 736 mmHg 39%
    04:00 +39°C° 0 mm 2 mps 736 mmHg 40%
    05:00 +39°C° 0 mm 2 mps 736 mmHg 41%
    06:00 +39°C° 0 mm 2 mps 737 mmHg 40%
    07:00 +40°C° 0 mm 3 mps 737 mmHg 38%
    08:00 +42°C° 0 mm 3 mps 738 mmHg 37%
    09:00 +43°C° 0 mm 3 mps 738 mmHg 34%
    10:00 +44°C° 0 mm 3 mps 737 mmHg 30%
    11:00 +46°C° 0 mm 3 mps 737 mmHg 27%
    12:00 +46°C° 0 mm 3 mps 736 mmHg 27%
    13:00 +46°C° 0 mm 3 mps 736 mmHg 26%
    14:00 +45°C° 0 mm 3 mps 735 mmHg 26%
    15:00 +45°C° 0 mm 3 mps 735 mmHg 27%
    16:00 +45°C° 0 mm 3 mps 735 mmHg 28%
    17:00 +44°C° 0 mm 3 mps 734 mmHg 29%
    18:00 +43°C° 0 mm 2 mps 735 mmHg 31%
    19:00 +42°C° 0 mm 2 mps 735 mmHg 32%
    20:00 +42°C° 0 mm 2 mps 735 mmHg 33%
    21:00 +41°C° 0 mm 2 mps 735 mmHg 35%
    22:00 +41°C° 0 mm 2 mps 735 mmHg 36%
    23:00 +40°C° 0 mm 2 mps 735 mmHg 38%

    23 July, Tuesday

    Time Temperature Precipitation Wind Pressure Humidity
    00:00 +40°C° 0 mm 2 mps 735 mmHg 38%
    01:00 +39°C° 0 mm 2 mps 735 mmHg 39%
    02:00 +39°C° 0 mm 2 mps 735 mmHg 39%
    03:00 +39°C° 0.2 mm 2 mps 735 mmHg 41%
    04:00 +38°C° 0.2 mm 2 mps 735 mmHg 42%
    05:00 +38°C° 0.2 mm 2 mps 735 mmHg 43%
    06:00 +39°C° 0 mm 3 mps 735 mmHg 41%
    07:00 +41°C° 0 mm 4 mps 736 mmHg 40%
    08:00 +41°C° 0 mm 4 mps 736 mmHg 38%
    09:00 +43°C° 0 mm 4 mps 736 mmHg 35%
    10:00 +44°C° 0 mm 3 mps 736 mmHg 32%
    11:00 +45°C° 0 mm 3 mps 736 mmHg 29%
    12:00 +45°C° 0 mm 3 mps 736 mmHg 28%
    13:00 +46°C° 0 mm 3 mps 735 mmHg 27%
    14:00 +46°C° 0 mm 2 mps 734 mmHg 27%
    15:00 +45°C° 0 mm 3 mps 734 mmHg 28%
    16:00 +44°C° 0 mm 3 mps 734 mmHg 30%
    17:00 +44°C° 0 mm 4 mps 734 mmHg 31%
    18:00 +43°C° 0 mm 3 mps 735 mmHg 33%
    19:00 +42°C° 0 mm 3 mps 735 mmHg 35%
    20:00 +41°C° 0 mm 2 mps 736 mmHg 37%
    21:00 +39°C° 0.3 mm 3 mps 736 mmHg 44%
    22:00 +37°C° 0.3 mm 5 mps 736 mmHg 51%
    23:00 +36°C° 0.3 mm 6 mps 737 mmHg 58%

    24 July, Wednesday

    Time Temperature Precipitation Wind Pressure Humidity
    00:00 +36°C° 0 mm 6 mps 736 mmHg 58%
    01:00 +35°C° 0 mm 5 mps 736 mmHg 58%
    02:00 +35°C° 0 mm 5 mps 736 mmHg 58%
    03:00 +35°C° 0.1 mm 5 mps 736 mmHg 59%
    04:00 +35°C° 0.1 mm 4 mps 736 mmHg 60%
    05:00 +34°C° 0.1 mm 4 mps 736 mmHg 62%
    06:00 +35°C° 0.1 mm 4 mps 737 mmHg 60%
    07:00 +35°C° 0.1 mm 4 mps 737 mmHg 58%
    08:00 +36°C° 0.1 mm 3 mps 738 mmHg 56%
    09:00 +37°C° 0 mm 3 mps 738 mmHg 53%
    10:00 +37°C° 0 mm 2 mps 738 mmHg 51%
    11:00 +38°C° 0 mm 2 mps 738 mmHg 49%
    12:00 +37°C° 0.7 mm 2 mps 738 mmHg 53%
    13:00 +36°C° 0.7 mm 3 mps 737 mmHg 58%
    14:00 +35°C° 0.7 mm 3 mps 737 mmHg 63%
    15:00 +35°C° 0.2 mm 4 mps 736 mmHg 64%
    16:00 +34°C° 0.2 mm 4 mps 736 mmHg 66%
    17:00 +34°C° 0.2 mm 5 mps 736 mmHg 67%
    18:00 +34°C° 0 mm 5 mps 736 mmHg 67%
    19:00 +34°C° 0 mm 4 mps 737 mmHg 67%
    20:00 +33°C° 0 mm 4 mps 737 mmHg 67%
    21:00 +33°C° 0.1 mm 4 mps 737 mmHg 69%
    22:00 +33°C° 0.1 mm 4 mps 738 mmHg 71%
    23:00 +33°C° 0.1 mm 3 mps 738 mmHg 73%
    Show more